[[{"header":{"parameterUnit":"m.s-1","parameterCategory":1,"la1":30.2991,"la2":30.254,"lo1":-89.0895,"lo2":-89.0444,"dy":0.0017,"dx":0.0017,"nx":28,"ny":28,"refTime":"2024-04-30T21:00:00:Z","depth":0,"parameterNumber":2,"parameterNumberName":"U-component_of_WINDS"},"data":[0,0,0,0,0,0,0,0,0,0,0,0,0,0,0,0,0,0,0,0,0,0,0,0,0,0,0,0,0,0,0,0,0,0,0,0,0,0,0,0,0,0,0,0,0,0,0,0,0,0,0,0,0,0,0,0,0,0,-1.3634,-1.3633,0,-1.3575,-1.3574,-1.3574,-1.3522,-1.3521,-1.3521,-1.352,-1.3458,-1.3457,-1.3456,0,0,0,0,0,0,0,0,0,0,0,0,0,-1.3701,-1.37,-1.3634,-1.3633,-1.3632,-1.3575,-1.3574,-1.3574,-1.3522,-1.3521,-1.352,-1.352,-1.3459,-1.3458,-1.3456,0,0,0,0,0,0,0,0,0,0,0,0,0,-1.366,-1.3699,-1.3634,-1.36,-1.3596,-1.3575,-1.3574,-1.3573,-1.3522,-1.3521,-1.352,-1.3519,-1.3459,-1.3458,-1.3456,-1.3464,0,0,-1.3451,-1.345,0,0,0,0,0,0,0,0,-1.3662,-1.3657,-1.3605,-1.3602,-1.3598,-1.3555,-1.3575,-1.3537,-1.3522,-1.355,-1.352,-1.3519,-1.3491,-1.3487,-1.3478,-1.3461,-1.3459,-1.3451,-1.345,-1.3449,-1.3449,0,0,0,0,0,0,0,-1.3665,-1.366,-1.361,-1.3605,-1.36,-1.3587,-1.358,-1.3568,-1.3526,-1.3548,-1.3544,-1.3537,-1.3489,-1.348,-1.3476,-1.3458,-1.3451,-1.345,-1.3449,-1.3448,-1.3446,-1.3447,0,0,0,0,0,0,-1.3673,-1.3662,-1.3612,-1.3609,-1.3629,-1.3587,-1.3579,-1.357,-1.3526,-1.3519,-1.3538,-1.3535,-1.3483,-1.3478,-1.3474,-1.3481,-1.3449,-1.3448,-1.3447,-1.3445,-1.3446,-1.3447,0,0,0,0,0,0,-1.3675,-1.3669,-1.3615,-1.3634,-1.3627,-1.3586,-1.3576,-1.3569,-1.3559,-1.3519,-1.3512,-1.3536,-1.3482,-1.3476,-1.3467,-1.3478,-1.3447,-1.3446,-1.3444,-1.3445,-1.3447,-1.3495,0,0,0,0,0,0,-1.3677,-1.367,-1.3673,-1.3635,-1.3626,-1.361,-1.3577,-1.3568,-1.3557,-1.3552,-1.3515,-1.3508,-1.3481,-1.347,-1.3466,-1.3475,-1.3444,-1.3443,-1.3445,-1.3446,-1.3492,-1.3498,-1.3502,0,0,0,0,0,-1.368,-1.3688,-1.3673,-1.3667,-1.3628,-1.361,-1.3605,-1.3573,-1.3558,-1.356,-1.3535,-1.351,-1.3478,-1.347,-1.3464,-1.3473,-1.3442,-1.3444,-1.3446,-1.349,-1.3496,-1.3502,0,0,0,0,0,0,-1.3728,-1.3683,-1.3665,-1.3662,-1.3641,-1.3602,-1.3603,-1.3581,-1.3563,-1.3559,-1.352,-1.3513,-1.3508,-1.349,-1.3482,-1.3479,-1.3456,-1.3458,-1.3491,-1.3497,-1.3503,-1.3507,-1.3443,0,0,0,0,0,-1.3738,-1.3727,-1.3688,-1.3689,-1.3679,-1.3644,-1.3634,-1.3612,-1.3588,-1.3578,-1.3552,-1.3529,-1.3514,-1.3505,-1.3489,-1.349,-1.3481,-1.3493,-1.3498,-1.3503,-1.3504,-1.3504,-1.3509,-1.3454,-1.3454,-1.3454,0,0,-1.3759,-1.3733,-1.3728,-1.3698,-1.3679,-1.3669,-1.3636,-1.3626,-1.3619,-1.3577,-1.3567,-1.3547,-1.3519,-1.3516,-1.3513,-1.35,-1.3518,-1.3505,-1.3509,-1.3508,-1.3506,-1.3512,-1.3516,-1.3455,-1.3455,-1.3455,0,0,-1.3792,-1.3771,-1.377,-1.3751,-1.3723,-1.3699,-1.3699,-1.3664,-1.3649,-1.3639,-1.3608,-1.3598,-1.3573,-1.3554,-1.3542,-1.357,-1.3546,-1.3565,-1.3592,-1.3592,-1.3596,-1.36,-1.361,-1.3614,-1.3567,-1.3567,-1.3567,0,-1.3821,-1.3805,-1.3772,-1.3764,-1.3752,-1.3715,-1.3713,-1.3697,-1.3665,-1.3657,-1.3644,-1.3612,-1.359,-1.3582,-1.3589,-1.358,-1.3579,-1.3569,-1.3599,-1.3602,-1.3605,-1.3614,-1.3618,-1.357,-1.3569,-1.3569,-1.3569,0,-1.3842,-1.3832,-1.3834,-1.3805,-1.3793,-1.3788,-1.3755,-1.3747,-1.3726,-1.3704,-1.3695,-1.3668,-1.3646,-1.3643,-1.3622,-1.3632,-1.3625,-1.3606,-1.3582,-1.3613,-1.3621,-1.3624,-1.3573,-1.3572,-1.3572,-1.3571,0,0,-1.3903,-1.3856,-1.3857,-1.3844,-1.381,-1.3801,-1.3796,-1.3775,-1.3769,-1.3748,-1.3743,-1.3723,-1.3705,-1.3691,-1.3668,-1.3668,-1.3693,-1.3649,-1.3648,-1.3658,-1.3703,-1.3717,-1.3722,-1.3677,-1.3678,-1.3678,-1.3705,0,-1.393,-1.3918,-1.3888,-1.3885,-1.3875,-1.384,-1.3835,-1.3815,-1.3794,-1.3783,-1.376,-1.3747,-1.3724,-1.3716,-1.3714,-1.369,-1.3701,-1.3688,-1.3671,-1.3671,-1.3679,-1.3726,-1.3741,-1.3767,-1.3708,-1.3708,-1.3709,0,-1.396,-1.3942,-1.3938,-1.3906,-1.3901,-1.3897,-1.3876,-1.3866,-1.3841,-1.3827,-1.3812,-1.3787,-1.3779,-1.3758,-1.3747,-1.3739,-1.373,-1.3718,-1.3718,-1.3715,-1.3691,-1.3724,-1.3775,-1.3779,-1.3713,-1.3713,-1.3713,0,-1.4004,-1.3979,-1.3974,-1.3963,-1.3926,-1.3924,-1.3908,-1.3883,-1.3873,-1.3855,-1.3848,-1.3829,-1.3819,-1.3805,-1.3776,-1.3763,-1.3768,-1.3745,-1.3756,-1.3757,-1.3758,-1.3758,-1.3808,-1.3753,-1.3753,-1.3753,-1.3753,0,-1.4037,-1.4036,-1.3993,-1.399,-1.3988,-1.3955,-1.3954,-1.3935,-1.3913,-1.3906,-1.3875,-1.3868,-1.383,-1.3819,-1.3797,-1.3791,-1.3787,-1.3775,-1.3768,-1.3777,-1.3779,-1.3771,-1.3768,-1.3754,-1.3754,-1.3754,-1.3754,0,-1.4086,-1.4058,-1.4049,-1.4015,-1.4006,-1.4007,-1.3977,-1.3973,-1.3951,-1.3942,-1.3938,-1.3904,-1.389,-1.3859,-1.3837,-1.3822,-1.3822,-1.3811,-1.383,-1.3826,-1.3839,-1.3839,-1.3886,-1.3891,-1.3833,-1.3834,-1.3834,0,-1.4109,-1.4108,-1.4074,-1.4067,-1.4052,-1.4041,-1.4031,-1.3999,-1.3989,-1.3962,-1.3961,-1.3945,-1.393,-1.3909,-1.3882,-1.3865,-1.3854,-1.3872,-1.3851,-1.386,-1.3854,-1.3854,-1.3854,-1.3876,-1.3877,-1.3877,-1.3878,0,-1.4153,-1.4139,-1.4126,-1.4108,-1.4097,-1.4081,-1.4063,-1.4059,-1.4022,-1.4014,-1.3999,-1.3988,-1.3965,-1.395,-1.3929,-1.3912,-1.3889,-1.3885,-1.3887,-1.3895,-1.3907,-1.3901,-1.3843,-1.3884,-1.3883,-1.3883,-1.3882,-1.3882,-1.419,-1.4187,-1.4163,-1.4149,-1.4133,-1.4117,-1.4112,-1.409,-1.4077,-1.4057,-1.4039,-1.4026,-1.4003,-1.3972,-1.3958,-1.3948,-1.3936,-1.3938,-1.3939,-1.394,-1.3944,-1.3909,-1.3944,-1.3944,-1.3943,-1.3943,-1.3943,0,-1.4232,-1.4215,-1.4203,-1.418,-1.4169,-1.4149,-1.4129,-1.4121,-1.4111,-1.4091,-1.4077,-1.4061,-1.4046,-1.4019,-1.4001,-1.3999,-1.3988,-1.3995,-1.3995,-1.3992,-1.3955,-1.3956,-1.4004,-1.4004,-1.4004,-1.4004,-1.4004,-1.4004,-1.4253,-1.4248,-1.4231,-1.4218,-1.42,-1.4188,-1.4179,-1.4164,-1.4149,-1.4132,-1.412,-1.4102,-1.408,-1.4061,-1.4046,-1.4038,-1.4033,-1.4044,-1.4033,-1.4,-1.3994,-1.3989,-1.3989,-1.4044,-1.4044,-1.407,-1.4071,-1.4071]},{"header":{"parameterUnit":"m.s-1","parameterCategory":1,"la1":30.2991,"la2":30.254,"lo1":-89.0895,"lo2":-89.0444,"dy":0.0017,"dx":0.0017,"nx":28,"ny":28,"refTime":"2024-04-30T21:00:00:Z","depth":0,"parameterNumber":3,"parameterNumberName":"V-component_of_WINDS"},"data":[0,0,0,0,0,0,0,0,0,0,0,0,0,0,0,0,0,0,0,0,0,0,0,0,0,0,0,0,0,0,0,0,0,0,0,0,0,0,0,0,0,0,0,0,0,0,0,0,0,0,0,0,0,0,0,0,0,0,2.3647,2.3648,0,2.3672,2.3673,2.3673,2.3687,2.3688,2.3688,2.3688,2.3711,2.3712,2.3712,0,0,0,0,0,0,0,0,0,0,0,0,0,2.361,2.3611,2.3647,2.3648,2.3648,2.3672,2.3673,2.3673,2.3687,2.3688,2.3688,2.3688,2.3711,2.3712,2.3712,0,0,0,0,0,0,0,0,0,0,0,0,0,2.363,2.3611,2.3647,2.3658,2.3659,2.3672,2.3673,2.3673,2.3687,2.3688,2.3688,2.3688,2.3711,2.3712,2.3712,2.3716,0,0,2.3715,2.3715,0,0,0,0,0,0,0,0,2.3629,2.3631,2.3656,2.3657,2.3659,2.3677,2.3668,2.3687,2.3687,2.3677,2.3688,2.3688,2.37,2.3701,2.3706,2.3717,2.3718,2.3715,2.3716,2.3716,2.3716,0,0,0,0,0,0,0,2.3627,2.363,2.3657,2.3656,2.3658,2.3661,2.3664,2.3672,2.3687,2.3678,2.3679,2.3682,2.37,2.3705,2.3706,2.3718,2.3715,2.3716,2.3716,2.3717,2.3735,2.3735,0,0,0,0,0,0,2.3624,2.3629,2.3656,2.3658,2.3644,2.3662,2.3665,2.3671,2.3687,2.369,2.3682,2.3682,2.3703,2.3705,2.3707,2.3713,2.3716,2.3717,2.3717,2.3735,2.3735,2.3735,0,0,0,0,0,0,2.3624,2.3627,2.3655,2.3644,2.3648,2.3662,2.3669,2.3671,2.3676,2.369,2.3693,2.3684,2.3704,2.3706,2.3714,2.3714,2.3717,2.3718,2.3735,2.3735,2.3735,2.3724,0,0,0,0,0,0,2.3622,2.3626,2.3628,2.3644,2.3648,2.3662,2.3669,2.3672,2.3678,2.3679,2.3693,2.3695,2.3704,2.3713,2.3715,2.3715,2.3719,2.3735,2.3735,2.3735,2.3725,2.3724,2.3723,0,0,0,0,0,2.3621,2.3623,2.3628,2.3631,2.3651,2.3662,2.3665,2.3675,2.3678,2.368,2.3689,2.3695,2.3714,2.3713,2.3716,2.3717,2.3735,2.3735,2.3735,2.3725,2.3724,2.3723,0,0,0,0,0,0,2.3606,2.3626,2.3631,2.3639,2.3649,2.3664,2.3667,2.3674,2.3682,2.3683,2.3695,2.3698,2.3705,2.3712,2.3711,2.3721,2.3725,2.3725,2.3717,2.3716,2.3715,2.3713,2.3719,0,0,0,0,0,2.3604,2.3612,2.3629,2.3634,2.3639,2.3652,2.3657,2.3665,2.3675,2.3679,2.3689,2.3698,2.3707,2.3712,2.372,2.3726,2.3729,2.3728,2.3727,2.3726,2.3726,2.3731,2.373,2.3734,2.3734,2.3734,0,0,2.3599,2.3611,2.3615,2.3631,2.364,2.3648,2.3655,2.3663,2.3669,2.368,2.3689,2.3696,2.3707,2.3715,2.3718,2.372,2.3726,2.3726,2.3725,2.3726,2.373,2.373,2.373,2.3734,2.3734,2.3734,0,0,2.3595,2.3605,2.361,2.3619,2.3633,2.3642,2.3643,2.3658,2.3664,2.3673,2.3682,2.3688,2.3702,2.371,2.3716,2.3716,2.3722,2.3718,2.3714,2.3718,2.3718,2.3717,2.3718,2.3717,2.3718,2.3718,2.3718,0,2.3587,2.36,2.3612,2.362,2.3627,2.3638,2.3644,2.3652,2.3667,2.3671,2.3674,2.3692,2.37,2.371,2.371,2.3714,2.3716,2.3716,2.3717,2.3717,2.3717,2.3717,2.3717,2.3717,2.3718,2.3718,2.3718,0,2.359,2.3599,2.3602,2.3617,2.3624,2.3631,2.3644,2.365,2.3657,2.3665,2.3674,2.3685,2.3696,2.3699,2.3705,2.3709,2.371,2.3715,2.3718,2.3716,2.3716,2.3716,2.3717,2.3717,2.3717,2.3717,0,0,2.3576,2.36,2.36,2.3608,2.3624,2.3631,2.3638,2.365,2.3655,2.3665,2.3671,2.3683,2.3687,2.3694,2.3701,2.3705,2.3704,2.3709,2.3709,2.3708,2.371,2.3707,2.3707,2.3709,2.3709,2.3709,2.3709,0,2.3574,2.3589,2.3601,2.361,2.3619,2.3631,2.3637,2.3647,2.3656,2.3664,2.3673,2.3681,2.3686,2.369,2.3694,2.3704,2.3705,2.3704,2.3714,2.3715,2.3711,2.3707,2.3704,2.3704,2.371,2.371,2.371,0,2.3574,2.3585,2.3596,2.3612,2.3616,2.3622,2.3634,2.3641,2.3653,2.3659,2.3667,2.3675,2.3683,2.3687,2.3698,2.3697,2.3702,2.3707,2.3707,2.3709,2.3712,2.3709,2.3704,2.3704,2.371,2.371,2.371,0,2.3563,2.3581,2.359,2.3596,2.3615,2.3619,2.3627,2.3639,2.3646,2.3656,2.366,2.3671,2.3677,2.3685,2.3696,2.3697,2.3706,2.371,2.3711,2.371,2.3712,2.3712,2.3708,2.3715,2.3715,2.3715,2.3715,0,2.356,2.3566,2.3586,2.3591,2.3599,2.3612,2.3619,2.3628,2.3639,2.3646,2.3656,2.3663,2.3677,2.3685,2.3693,2.3701,2.3704,2.3708,2.3711,2.3708,2.3707,2.3711,2.3711,2.3715,2.3715,2.3715,2.3715,0,2.3549,2.3562,2.3573,2.3591,2.3596,2.36,2.3615,2.3621,2.363,2.3639,2.3642,2.3657,2.3667,2.3679,2.3692,2.3698,2.3705,2.3708,2.3702,2.3703,2.3703,2.3703,2.3702,2.3703,2.3709,2.3709,2.3709,0,2.3546,2.3552,2.357,2.3577,2.3585,2.3594,2.3601,2.3615,2.3622,2.3637,2.364,2.3652,2.3661,2.3677,2.3688,2.3699,2.3702,2.3701,2.3704,2.3701,2.3702,2.3702,2.3703,2.37,2.37,2.37,2.37,0,2.354,2.3546,2.3557,2.357,2.3578,2.3589,2.36,2.3604,2.362,2.3627,2.3638,2.3646,2.366,2.3671,2.3683,2.3691,2.3698,2.3699,2.37,2.3697,2.3693,2.3696,2.37,2.3699,2.3699,2.3699,2.3699,2.3699,2.3533,2.3539,2.3553,2.3565,2.3575,2.3585,2.3592,2.3602,2.3612,2.3626,2.3633,2.3644,2.3656,2.3674,2.3681,2.369,2.3692,2.3693,2.3693,2.3694,2.3693,2.3692,2.3692,2.3692,2.3692,2.3692,2.3692,0,2.3527,2.3538,2.3548,2.3564,2.3573,2.358,2.3593,2.36,2.361,2.3621,2.3631,2.3644,2.3655,2.3667,2.3679,2.3683,2.3687,2.3686,2.3686,2.3687,2.369,2.3688,2.3683,2.3683,2.3683,2.3683,2.3683,2.3683,2.3526,2.3536,2.3544,2.356,2.357,2.3582,2.3588,2.3598,2.3607,2.3621,2.3631,2.364,2.3652,2.3664,2.3675,2.3678,2.3682,2.368,2.3684,2.3686,2.3687,2.3688,2.3686,2.3681,2.3681,2.3681,2.3681,2.3681]}]]